Time,TemperatureF,DewpointF,PressureIn,WindDirection,WindDirectionDegrees,WindSpeedMPH,WindSpeedGustMPH,Humidity,HourlyPrecipIn,Conditions,Clouds,dailyrainin,SoftwareType,DateUTC
2013-10-13 00:02:00,-999.0,-99.9,30.31,ENE,62,0.0,2.0,-999,-99.99,,,-99.99,,2013-10-13 04:02:00,
2013-10-13 00:23:00,53.0,50.0,30.31,NE,52,1.0,2.0,88,0.00,,,0.00,,2013-10-13 04:23:00,
2013-10-13 00:54:00,53.0,50.0,30.31,ENE,58,0.0,5.0,88,0.00,,,0.00,,2013-10-13 04:54:00,
2013-10-13 01:23:00,53.0,49.0,30.31,NE,46,0.0,5.0,87,0.00,,,0.00,,2013-10-13 05:23:00,
2013-10-13 01:52:00,53.0,49.0,30.31,NE,53,1.0,8.0,87,0.00,,,0.00,,2013-10-13 05:52:00,
2013-10-13 02:22:00,52.0,49.0,30.31,ENE,62,0.0,8.0,90,0.00,,,0.00,,2013-10-13 06:22:00,
2013-10-13 02:52:00,52.0,49.0,30.30,NE,52,1.0,5.0,91,0.00,,,0.00,,2013-10-13 06:52:00,
2013-10-13 03:22:00,51.0,49.0,30.29,NE,55,2.0,5.0,92,0.00,,,0.00,,2013-10-13 07:22:00,
2013-10-13 03:52:00,51.0,49.0,30.29,NE,50,7.0,8.0,92,0.00,,,0.00,,2013-10-13 07:52:00,
2013-10-13 04:22:00,51.0,48.0,30.29,NE,35,2.0,8.0,91,0.00,,,0.00,,2013-10-13 08:22:00,
2013-10-13 04:52:00,50.0,47.0,30.29,NE,51,0.0,6.0,91,0.00,,,0.00,,2013-10-13 08:52:00,
2013-10-13 05:22:00,50.0,47.0,30.31,NE,40,0.0,6.0,91,0.00,,,0.00,,2013-10-13 09:22:00,
2013-10-13 05:53:00,50.0,47.0,30.31,ENE,63,0.0,0.0,91,0.00,,,0.00,,2013-10-13 09:53:00,
2013-10-13 06:23:00,50.0,48.0,30.32,NE,53,0.0,0.0,92,0.00,,,0.00,,2013-10-13 10:23:00,
2013-10-13 06:53:00,49.0,47.0,30.34,NE,53,0.0,0.0,92,0.00,,,0.00,,2013-10-13 10:53:00,
2013-10-13 07:22:00,50.0,48.0,30.35,NE,47,0.0,0.0,92,0.00,,,0.00,,2013-10-13 11:22:00,
2013-10-13 07:52:00,51.0,48.0,30.35,NE,47,0.0,4.0,90,0.00,,,0.00,,2013-10-13 11:52:00,
2013-10-13 08:22:00,52.0,49.0,30.36,NE,53,1.0,4.0,89,0.00,,,0.00,,2013-10-13 12:22:00,
2013-10-13 08:32:00,52.0,49.0,30.36,NE,53,1.0,4.0,89,0.00,,,0.00,,2013-10-13 12:32:00,
2013-10-13 08:52:00,52.0,49.0,30.36,NE,53,1.0,4.0,89,0.00,,,0.00,,2013-10-13 12:52:00,
2013-10-13 09:22:00,54.0,50.0,30.37,ENE,77,5.0,5.0,87,0.00,,,0.00,,2013-10-13 13:22:00,
2013-10-13 09:52:00,55.0,50.0,30.37,NNE,25,4.0,4.0,84,0.00,,,0.00,,2013-10-13 13:52:00,
2013-10-13 10:22:00,57.0,51.0,30.38,NE,46,6.0,6.0,79,0.00,,,0.00,,2013-10-13 14:22:00,
2013-10-13 10:52:00,56.0,49.0,30.38,NE,49,5.0,9.0,78,0.00,,,0.00,,2013-10-13 14:52:00,
2013-10-13 11:22:00,57.0,50.0,30.38,NE,56,7.0,9.0,77,0.00,,,0.00,,2013-10-13 15:22:00,
2013-10-13 11:33:00,57.0,50.0,30.38,NE,56,7.0,9.0,77,0.00,,,0.00,,2013-10-13 15:33:00,
2013-10-13 11:54:00,57.0,50.0,30.37,ENE,58,0.0,9.0,76,0.00,,,0.00,,2013-10-13 15:54:00,
2013-10-13 12:24:00,58.0,50.0,30.37,ENE,64,0.0,9.0,74,0.00,,,0.00,,2013-10-13 16:24:00,
2013-10-13 12:54:00,58.0,50.0,30.37,NE,43,7.0,7.0,74,0.00,,,0.00,,2013-10-13 16:54:00,
2013-10-13 13:22:00,59.0,50.0,30.36,ENE,64,2.0,7.0,73,0.00,,,0.00,,2013-10-13 17:22:00,
2013-10-13 13:53:00,59.0,50.0,30.36,NE,39,5.0,10.0,72,0.00,,,0.00,,2013-10-13 17:53:00,
2013-10-13 14:22:00,59.0,50.0,30.36,East,99,0.0,10.0,73,0.00,,,0.00,,2013-10-13 18:22:00,
2013-10-13 14:52:00,59.0,50.0,30.36,NNE,21,7.0,8.0,73,0.00,,,0.00,,2013-10-13 18:52:00,
2013-10-13 15:22:00,59.0,50.0,30.35,ENE,73,3.0,8.0,72,0.00,,,0.00,,2013-10-13 19:22:00,
2013-10-13 15:52:00,60.0,51.0,30.35,NNE,33,3.0,3.0,71,0.00,,,0.00,,2013-10-13 19:52:00,
2013-10-13 16:22:00,59.0,49.0,30.35,ENE,60,7.0,7.0,70,0.00,,,0.00,,2013-10-13 20:22:00,
2013-10-13 16:52:00,58.0,50.0,30.35,East,84,5.0,5.0,75,0.00,,,0.00,,2013-10-13 20:52:00,
2013-10-13 17:11:00,58.0,50.0,30.35,NE,56,2.0,4.0,75,0.00,,,0.00,,2013-10-13 21:11:00,
2013-10-13 17:21:00,58.0,50.0,30.35,NE,56,2.0,4.0,75,0.00,,,0.00,,2013-10-13 21:21:00,
2013-10-13 17:55:00,58.0,49.0,30.34,NE,55,0.0,5.0,71,0.00,,,0.00,,2013-10-13 21:55:00,
2013-10-13 18:04:00,58.0,49.0,30.34,NE,55,0.0,5.0,71,0.00,,,0.00,,2013-10-13 22:04:00,
2013-10-13 18:24:00,56.0,48.0,30.34,NE,53,0.0,5.0,74,0.00,,,0.00,,2013-10-13 22:24:00,
2013-10-13 18:32:00,56.0,48.0,30.34,NE,53,0.0,5.0,74,0.00,,,0.00,,2013-10-13 22:32:00,
2013-10-13 18:53:00,56.0,48.0,30.34,NE,53,0.0,5.0,74,0.00,,,0.00,,2013-10-13 22:53:00,
2013-10-13 19:22:00,52.0,47.0,30.35,NE,50,0.0,0.0,82,0.00,,,0.00,,2013-10-13 23:22:00,
2013-10-13 19:52:00,50.0,46.0,30.35,NE,50,0.0,0.0,86,0.00,,,0.00,,2013-10-13 23:52:00,
2013-10-13 20:22:00,49.0,46.0,30.35,NE,50,0.0,0.0,88,0.00,,,0.00,,2013-10-14 00:22:00,
2013-10-13 20:52:00,48.0,45.0,30.36,NE,50,0.0,0.0,89,0.00,,,0.00,,2013-10-14 00:52:00,
2013-10-13 21:21:00,47.0,45.0,30.37,NE,50,0.0,0.0,91,0.00,,,0.00,,2013-10-14 01:21:00,
2013-10-13 21:52:00,46.0,44.0,30.37,NE,50,0.0,0.0,92,0.00,,,0.00,,2013-10-14 01:52:00,
2013-10-13 22:11:00,46.0,44.0,30.37,NE,50,0.0,0.0,93,0.00,,,0.00,,2013-10-14 02:11:00,
2013-10-13 22:22:00,46.0,44.0,30.37,NE,50,0.0,0.0,93,0.00,,,0.00,,2013-10-14 02:22:00,
2013-10-13 22:52:00,44.0,42.0,30.37,NE,50,0.0,0.0,92,0.00,,,0.00,,2013-10-14 02:52:00,
2013-10-13 23:22:00,43.0,41.0,30.38,NE,50,0.0,0.0,93,0.00,,,0.00,,2013-10-14 03:22:00,
2013-10-13 23:55:00,42.0,40.0,30.38,NE,50,0.0,0.0,93,0.00,,,0.00,,2013-10-14 03:55:00,